Weather Roundup
Issued by NWS Springfield, MO

Home | Current Version | Previous Version | Text Only | Print | Product List | Glossary On
Versions: 1 2 3 4 5 6 7 8 9 10 11 12 13 14 15 16 17 18 19 20 21 22 23 24 25 26 27 28 29 30 31 32 33 34 35 36 37 38 39 40 41 42 43 44 45 46 47 48 49 50
000
NZUS99 KSGF 231107
HRRSGF

HOURLY WEATHER
NATIONAL WEATHER SERVICE SPRINGFIELD MO
500 AM CST THU FEB 23 2017

......SGF CWA......

CITY           SKY/WX    TMP DP  RH WIND       PRES   REMARKS
SPRINGFIELD    FOG       53  53 100 S14       29.68R VSB 1/2
JOPLIN         CLEAR     57  54  89 S10       29.64S
WEST PLAINS    FOG       52  51  97 S5        29.75S VSB 1/4
ROLLA          FOG       52  52 100 E5        29.69S VSB 1/4
OSAGE BEACH    LGT RAIN  53  52  96 SE3       29.70S VSB 1/4
BRANSON        FOG       50  50 100 E6        29.71F VSB<1/4

......SURROUNDING SGF CWA......

CITY           SKY/WX    TMP DP  RH WIND       PRES   REMARKS
CHANUTE        PTCLDY    48  44  86 CALM      29.63F
PARSONS        PTCLDY    44  42  93 E3        29.63S
COFFEYVILLE    CLEAR     52  48  86 SE6       29.62F
EMPORIA        CLOUDY    52  39  61 NE12      29.66R
GROVE OK       MOCLDY    52  52 100 E3        29.66S
ROGERS AR      CLOUDY    55  52  89 SE8       29.69S
SILOAM SPRINGS PTCLDY    55  50  82 SE9       29.66F
HARRISON AR    PTCLDY    51  51 100 SE8       29.71S FOG
NEAR YELLVILLE CLOUDY    48  43  81 CALM      29.71S VSB 1/2

......KANSAS AND MISSOURI......

CITY           SKY/WX    TMP DP  RH WIND       PRES   REMARKS
KANSAS CTY INT CLOUDY    50  41  71 NE13      29.69S
DOWNTOWN KC    CLOUDY    53  41  63 NE9       29.69R
COLUMBIA       FOG       50  50 100 E5        29.70S VSB 1/4
SEDALIA        CLOUDY    51  48  89 NE7       29.69S
ST JOSEPH      CLOUDY    49  40  71 NE12      29.73R
ST LOUIS       PTCLDY    52  49  89 CALM      29.73S
SPIRIT OF STL  FOG       47  47 100 CALM      29.72S VSB 1/4
KIRKSVILLE     PTCLDY    42  39  89 NE12      29.72F
WICHITA        MOCLDY    48  43  82 NE9       29.58F
TOPEKA         CLOUDY    52  39  61 NE7       29.72R
OLATHE         CLOUDY    52  41  66 E9        29.69R

......TENNESSEE......

CITY           SKY/WX    TMP DP  RH WIND       PRES   REMARKS
MEMPHIS        CLEAR     56  55  97 S6        29.79S
NASHVILLE      CLEAR     55  53  93 CALM      29.84R

......ARKANSAS.......

CITY           SKY/WX    TMP DP  RH WIND       PRES   REMARKS
FAYETTEVILLE   CLOUDY    50  50 100 S5        29.69S
FT SMITH       MOCLDY    54  52  93 NE9       29.69S
LITTLE ROCK    FOG       50  50 100 S3        29.76S VSB 1/16

......OKLAHOMA.......

CITY           SKY/WX    TMP DP  RH WIND       PRES   REMARKS
TULSA          CLOUDY    58  54  86 SE10      29.58F
PONCA CITY     CLEAR     49  41  74 SE8       29.55F
MCALESTER      CLOUDY    62  50  64 SE6       29.64S
OKLAHOMA CITY  MOCLDY    55  46  71 S9        29.57F

......IOWA............

CITY           SKY/WX    TMP DP  RH WIND       PRES   REMARKS
DES MOINES     CLOUDY    40  36  86 N15G22    29.81R WCI  32
QUAD CITIES    CLOUDY   N/A N/A N/A N9        29.74F

......ILLINOIS........

CITY           SKY/WX    TMP DP  RH WIND       PRES   REMARKS
QUINCY         PTCLDY    43  41  93 NE7       29.73S
CHICAGO        CLEAR     50  44  80 W7        29.70R



USA.gov is the U.S. government's official web portal to all federal, state and local government web resources and services.